contact:dominique.lefevre@mio.osupytheas.fr, maurice.libes@osupytheas.fr, didier.mallarino@osupytheas.fr
Project:EMSO http://www.emso-fr.org/EMSO-France
Depth: 2436.0 m
Title:EMSO Ligure Ouest : Data MII capteur CSTAR
DateTime,Latitude,Longitude,Instrument_Serial,Reference_Counts,Signal_Counts,Corrected_Signal_raw_counts,Calculated_Beam_c_inverse_meters,Internal_thermistor_counts
DateTime,Latitude,Longitude,Instrument_Serial,Reference_Counts,Signal_Counts,Corrected_Signal_raw_counts,Calculated_Beam_c_inverse_meters,Internal_thermistor_counts
2020-04-09T00:01:52,42.805,6.029,CST-1368DR,6494,9102,15193,0.110,551
2020-04-09T00:04:53,42.805,6.029,CST-1368DR,6494,9101,15191,0.110,551
2020-04-09T00:07:55,42.805,6.029,CST-1368DR,6494,9103,15194,0.110,551
2020-04-09T00:10:57,42.805,6.029,CST-1368DR,6494,9104,15195,0.109,551
2020-04-09T00:13:59,42.805,6.029,CST-1368DR,6494,9103,15195,0.109,551
2020-04-09T00:17:00,42.805,6.029,CST-1368DR,6494,9103,15194,0.110,551
2020-04-09T00:20:02,42.805,6.029,CST-1368DR,6494,9099,15187,0.111,551
2020-04-09T00:23:04,42.805,6.029,CST-1368DR,6494,9103,15194,0.110,551
2020-04-09T00:26:06,42.805,6.029,CST-1368DR,6494,9102,15193,0.110,551
2020-04-09T00:29:07,42.805,6.029,CST-1368DR,6494,9103,15193,0.110,551
2020-04-09T00:32:09,42.805,6.029,CST-1368DR,6494,9102,15192,0.110,551
2020-04-09T00:35:11,42.805,6.029,CST-1368DR,6494,9102,15193,0.110,551
2020-04-09T00:38:12,42.805,6.029,CST-1368DR,6494,9102,15193,0.110,550
2020-04-09T00:41:14,42.805,6.029,CST-1368DR,6494,9103,15193,0.110,551
2020-04-09T00:44:16,42.805,6.029,CST-1368DR,6494,9101,15191,0.110,551
2020-04-09T00:47:17,42.805,6.029,CST-1368DR,6494,9101,15190,0.111,551
2020-04-09T00:50:19,42.805,6.029,CST-1368DR,6494,9101,15191,0.110,551
2020-04-09T00:53:21,42.805,6.029,CST-1368DR,6494,9102,15192,0.110,551
2020-04-09T00:56:23,42.805,6.029,CST-1368DR,6494,9101,15190,0.111,551
2020-04-09T00:59:24,42.805,6.029,CST-1368DR,6494,9100,15189,0.111,551
2020-04-09T01:02:26,42.805,6.029,CST-1368DR,6494,9102,15193,0.110,551
2020-04-09T01:05:28,42.805,6.029,CST-1368DR,6494,9102,15193,0.110,551
2020-04-09T01:08:29,42.805,6.029,CST-1368DR,6494,9102,15193,0.110,551
2020-04-09T01:11:31,42.805,6.029,CST-1368DR,6494,9103,15193,0.110,551
2020-04-09T01:14:33,42.805,6.029,CST-1368DR,6494,9103,15194,0.110,551
2020-04-09T01:17:34,42.805,6.029,CST-1368DR,6494,9102,15193,0.110,551
2020-04-09T01:20:36,42.805,6.029,CST-1368DR,6494,9102,15192,0.110,551
2020-04-09T01:23:38,42.805,6.029,CST-1368DR,6494,9102,15193,0.110,551
2020-04-09T01:26:39,42.805,6.029,CST-1368DR,6494,9102,15193,0.110,551
2020-04-09T01:29:41,42.805,6.029,CST-1368DR,6494,9101,15191,0.110,551
2020-04-09T01:32:43,42.805,6.029,CST-1368DR,6494,9102,15193,0.110,551
2020-04-09T01:35:45,42.805,6.029,CST-1368DR,6494,9103,15194,0.110,551
2020-04-09T01:38:46,42.805,6.029,CST-1368DR,6494,9103,15194,0.110,551
2020-04-09T01:41:48,42.805,6.029,CST-1368DR,6494,9103,15193,0.110,551
2020-04-09T01:44:50,42.805,6.029,CST-1368DR,6494,9102,15193,0.110,551
2020-04-09T01:47:51,42.805,6.029,CST-1368DR,6494,9102,15192,0.110,551
2020-04-09T01:50:53,42.805,6.029,CST-1368DR,6494,9101,15191,0.110,551
2020-04-09T01:53:55,42.805,6.029,CST-1368DR,6494,9103,15193,0.110,551
2020-04-09T01:56:56,42.805,6.029,CST-1368DR,6494,9101,15191,0.110,551
2020-04-09T01:59:58,42.805,6.029,CST-1368DR,6494,9100,15190,0.111,551
2020-04-09T02:03:00,42.805,6.029,CST-1368DR,6494,9102,15193,0.110,551
2020-04-09T02:06:02,42.805,6.029,CST-1368DR,6494,9102,15193,0.110,551
2020-04-09T02:09:03,42.805,6.029,CST-1368DR,6494,9102,15192,0.110,551
2020-04-09T02:12:05,42.805,6.029,CST-1368DR,6494,9102,15193,0.110,551
2020-04-09T02:15:07,42.805,6.029,CST-1368DR,6494,9101,15191,0.110,551
2020-04-09T02:18:08,42.805,6.029,CST-1368DR,6494,9103,15193,0.110,551
2020-04-09T02:21:10,42.805,6.029,CST-1368DR,6494,9101,15190,0.111,551
2020-04-09T02:24:12,42.805,6.029,CST-1368DR,6494,9101,15191,0.110,551
2020-04-09T02:27:13,42.805,6.029,CST-1368DR,6494,9099,15187,0.111,551
2020-04-09T02:30:15,42.805,6.029,CST-1368DR,6494,9101,15191,0.110,551
2020-04-09T02:33:17,42.805,6.029,CST-1368DR,6494,9101,15191,0.110,551
2020-04-09T02:36:19,42.805,6.029,CST-1368DR,6494,9101,15191,0.110,551
2020-04-09T02:39:20,42.805,6.029,CST-1368DR,6494,9101,15191,0.110,551
2020-04-09T02:42:22,42.805,6.029,CST-1368DR,6494,9102,15192,0.110,551
2020-04-09T02:45:24,42.805,6.029,CST-1368DR,6494,9102,15193,0.110,551
2020-04-09T02:48:25,42.805,6.029,CST-1368DR,6494,9101,15191,0.110,551
2020-04-09T02:51:27,42.805,6.029,CST-1368DR,6494,9101,15191,0.110,551
2020-04-09T02:54:29,42.805,6.029,CST-1368DR,6494,9102,15193,0.110,551
2020-04-09T02:57:30,42.805,6.029,CST-1368DR,6494,9102,15193,0.110,551
2020-04-09T03:00:32,42.805,6.029,CST-1368DR,6494,9101,15191,0.110,550
2020-04-09T03:03:34,42.805,6.029,CST-1368DR,6494,9102,15193,0.110,551
2020-04-09T03:06:35,42.805,6.029,CST-1368DR,6494,9102,15193,0.110,551
2020-04-09T03:09:37,42.805,6.029,CST-1368DR,6494,9101,15191,0.110,551
2020-04-09T03:12:39,42.805,6.029,CST-1368DR,6494,9101,15191,0.110,551
2020-04-09T03:15:40,42.805,6.029,CST-1368DR,6494,9101,15191,0.110,551
2020-04-09T03:18:42,42.805,6.029,CST-1368DR,6494,9100,15189,0.111,551
2020-04-09T03:21:44,42.805,6.029,CST-1368DR,6494,9102,15193,0.110,551
2020-04-09T03:24:46,42.805,6.029,CST-1368DR,6493,9101,15193,0.110,551
2020-04-09T03:27:47,42.805,6.029,CST-1368DR,6493,9101,15193,0.110,551
2020-04-09T03:30:49,42.805,6.029,CST-1368DR,6493,9101,15194,0.110,551
2020-04-09T03:33:51,42.805,6.029,CST-1368DR,6493,9101,15193,0.110,551
2020-04-09T03:36:53,42.805,6.029,CST-1368DR,6493,9102,15195,0.109,551
2020-04-09T03:39:54,42.805,6.029,CST-1368DR,6493,9100,15191,0.110,551
2020-04-09T03:42:56,42.805,6.029,CST-1368DR,6493,9101,15193,0.110,551
2020-04-09T03:45:58,42.805,6.029,CST-1368DR,6493,9100,15191,0.110,551
2020-04-09T03:48:59,42.805,6.029,CST-1368DR,6494,9102,15193,0.110,551
2020-04-09T03:52:01,42.805,6.029,CST-1368DR,6493,9099,15190,0.111,551
2020-04-09T03:55:03,42.805,6.029,CST-1368DR,6493,9101,15193,0.110,551
2020-04-09T03:58:04,42.805,6.029,CST-1368DR,6493,9100,15191,0.110,551
2020-04-09T04:01:06,42.805,6.029,CST-1368DR,6493,9102,15194,0.110,551
2020-04-09T04:04:08,42.805,6.029,CST-1368DR,6493,9099,15189,0.111,551
2020-04-09T04:07:10,42.805,6.029,CST-1368DR,6493,9100,15192,0.110,551
2020-04-09T04:10:11,42.805,6.029,CST-1368DR,6493,9101,15194,0.110,551
2020-04-09T04:13:13,42.805,6.029,CST-1368DR,6493,9101,15193,0.110,551
2020-04-09T04:16:15,42.805,6.029,CST-1368DR,6493,9102,15195,0.109,551
2020-04-09T04:19:17,42.805,6.029,CST-1368DR,6494,9100,15189,0.111,551
2020-04-09T04:22:18,42.805,6.029,CST-1368DR,6493,9101,15193,0.110,551
2020-04-09T04:25:20,42.805,6.029,CST-1368DR,6493,9101,15193,0.110,551
2020-04-09T04:28:22,42.805,6.029,CST-1368DR,6493,9101,15192,0.110,550
2020-04-09T04:31:23,42.805,6.029,CST-1368DR,6493,9100,15191,0.110,551
2020-04-09T04:34:25,42.805,6.029,CST-1368DR,6493,9102,15195,0.109,551
2020-04-09T04:37:27,42.805,6.029,CST-1368DR,6493,9101,15194,0.110,550
2020-04-09T04:40:28,42.805,6.029,CST-1368DR,6493,9101,15194,0.110,551
2020-04-09T04:43:30,42.805,6.029,CST-1368DR,6493,9101,15192,0.110,551
2020-04-09T04:46:32,42.805,6.029,CST-1368DR,6493,9102,15195,0.109,551
2020-04-09T04:49:33,42.805,6.029,CST-1368DR,6493,9102,15194,0.110,551
2020-04-09T04:52:35,42.805,6.029,CST-1368DR,6493,9101,15193,0.110,551
2020-04-09T04:55:37,42.805,6.029,CST-1368DR,6493,9099,15190,0.111,551
2020-04-09T04:58:38,42.805,6.029,CST-1368DR,6493,9100,15191,0.110,551
2020-04-09T05:01:40,42.805,6.029,CST-1368DR,6493,9100,15191,0.110,551
2020-04-09T05:04:42,42.805,6.029,CST-1368DR,6493,9100,15191,0.110,551
2020-04-09T05:07:44,42.805,6.029,CST-1368DR,6493,9100,15191,0.110,551
2020-04-09T05:10:45,42.805,6.029,CST-1368DR,6493,9100,15191,0.110,551
2020-04-09T05:13:47,42.805,6.029,CST-1368DR,6493,9101,15193,0.110,551
2020-04-09T05:16:49,42.805,6.029,CST-1368DR,6493,9101,15193,0.110,551
2020-04-09T05:19:50,42.805,6.029,CST-1368DR,6493,9100,15191,0.110,551
2020-04-09T05:22:52,42.805,6.029,CST-1368DR,6493,9100,15191,0.110,551
2020-04-09T05:25:54,42.805,6.029,CST-1368DR,6493,9101,15193,0.110,551
2020-04-09T05:28:56,42.805,6.029,CST-1368DR,6493,9102,15194,0.110,551
2020-04-09T05:31:57,42.805,6.029,CST-1368DR,6493,9100,15191,0.110,551
2020-04-09T05:34:59,42.805,6.029,CST-1368DR,6493,9100,15191,0.110,551
2020-04-09T05:38:01,42.805,6.029,CST-1368DR,6493,9101,15192,0.110,550
2020-04-09T05:41:02,42.805,6.029,CST-1368DR,6493,9101,15194,0.110,551
2020-04-09T05:44:04,42.805,6.029,CST-1368DR,6493,9101,15193,0.110,551
2020-04-09T05:47:06,42.805,6.029,CST-1368DR,6493,9100,15192,0.110,551
2020-04-09T05:50:08,42.805,6.029,CST-1368DR,6493,9102,15194,0.110,551
2020-04-09T05:53:09,42.805,6.029,CST-1368DR,6493,9100,15191,0.110,551
2020-04-09T05:56:11,42.805,6.029,CST-1368DR,6493,9102,15195,0.109,551
2020-04-09T05:59:13,42.805,6.029,CST-1368DR,6493,9100,15191,0.110,551
2020-04-09T06:02:14,42.805,6.029,CST-1368DR,6493,9100,15192,0.110,551
2020-04-09T06:05:16,42.805,6.029,CST-1368DR,6493,9102,15195,0.109,551
2020-04-09T06:08:18,42.805,6.029,CST-1368DR,6493,9102,15195,0.109,551
2020-04-09T06:11:20,42.805,6.029,CST-1368DR,6493,9101,15192,0.110,551
2020-04-09T06:14:21,42.805,6.029,CST-1368DR,6493,9101,15194,0.110,551
2020-04-09T06:17:23,42.805,6.029,CST-1368DR,6493,9101,15194,0.110,551
2020-04-09T06:20:25,42.805,6.029,CST-1368DR,6493,9101,15193,0.110,550
2020-04-09T06:23:26,42.805,6.029,CST-1368DR,6493,9101,15192,0.110,551
2020-04-09T06:26:28,42.805,6.029,CST-1368DR,6493,9101,15193,0.110,551
2020-04-09T06:29:30,42.805,6.029,CST-1368DR,6493,9102,15194,0.110,551
2020-04-09T06:32:31,42.805,6.029,CST-1368DR,6493,9101,15194,0.110,551
2020-04-09T06:35:33,42.805,6.029,CST-1368DR,6493,9101,15193,0.110,551
2020-04-09T06:38:35,42.805,6.029,CST-1368DR,6493,9101,15193,0.110,551
2020-04-09T06:41:37,42.805,6.029,CST-1368DR,6493,9101,15193,0.110,551
2020-04-09T06:44:38,42.805,6.029,CST-1368DR,6493,9101,15192,0.110,551
2020-04-09T06:47:40,42.805,6.029,CST-1368DR,6493,9101,15194,0.110,551
2020-04-09T06:50:42,42.805,6.029,CST-1368DR,6493,9101,15193,0.110,551
2020-04-09T06:53:44,42.805,6.029,CST-1368DR,6493,9101,15193,0.110,551
2020-04-09T06:56:45,42.805,6.029,CST-1368DR,6493,9102,15194,0.110,551
2020-04-09T06:59:47,42.805,6.029,CST-1368DR,6493,9101,15194,0.110,551
2020-04-09T07:02:49,42.805,6.029,CST-1368DR,6493,9101,15192,0.110,551
2020-04-09T07:05:51,42.805,6.029,CST-1368DR,6493,9100,15191,0.110,551
2020-04-09T07:08:52,42.805,6.029,CST-1368DR,6493,9101,15193,0.110,551
2020-04-09T07:11:54,42.805,6.029,CST-1368DR,6493,9101,15193,0.110,551
2020-04-09T07:14:56,42.805,6.029,CST-1368DR,6493,9100,15192,0.110,551
2020-04-09T07:17:57,42.805,6.029,CST-1368DR,6493,9099,15189,0.111,551
2020-04-09T07:20:59,42.805,6.029,CST-1368DR,6493,9099,15189,0.111,551
2020-04-09T07:24:01,42.805,6.029,CST-1368DR,6493,9101,15193,0.110,551
2020-04-09T07:27:03,42.805,6.029,CST-1368DR,6493,9101,15193,0.110,551
2020-04-09T07:30:04,42.805,6.029,CST-1368DR,6493,9100,15191,0.110,551
2020-04-09T07:33:06,42.805,6.029,CST-1368DR,6493,9101,15193,0.110,551
2020-04-09T07:36:08,42.805,6.029,CST-1368DR,6493,9098,15188,0.111,551
2020-04-09T07:39:10,42.805,6.029,CST-1368DR,6493,9100,15191,0.110,551
2020-04-09T07:42:11,42.805,6.029,CST-1368DR,6493,9100,15192,0.110,551
2020-04-09T07:45:13,42.805,6.029,CST-1368DR,6493,9101,15193,0.110,550
2020-04-09T07:48:15,42.805,6.029,CST-1368DR,6493,9101,15193,0.110,551
2020-04-09T07:51:16,42.805,6.029,CST-1368DR,6493,9101,15194,0.110,551
2020-04-09T07:54:18,42.805,6.029,CST-1368DR,6493,9100,15191,0.110,551
2020-04-09T07:57:20,42.805,6.029,CST-1368DR,6493,9101,15192,0.110,551
2020-04-09T08:00:21,42.805,6.029,CST-1368DR,6493,9100,15191,0.110,551
2020-04-09T08:03:23,42.805,6.029,CST-1368DR,6493,9100,15191,0.110,551
2020-04-09T08:06:25,42.805,6.029,CST-1368DR,6493,9100,15192,0.110,551
2020-04-09T08:09:27,42.805,6.029,CST-1368DR,6493,9101,15193,0.110,551
2020-04-09T08:12:28,42.805,6.029,CST-1368DR,6493,9100,15191,0.110,551
2020-04-09T08:15:30,42.805,6.029,CST-1368DR,6493,9101,15193,0.110,551
2020-04-09T08:18:32,42.805,6.029,CST-1368DR,6493,9100,15191,0.110,551
2020-04-09T08:21:33,42.805,6.029,CST-1368DR,6492,9101,15195,0.109,550
2020-04-09T08:24:35,42.805,6.029,CST-1368DR,6493,9100,15191,0.110,551
2020-04-09T08:27:37,42.805,6.029,CST-1368DR,6493,9101,15192,0.110,551
2020-04-09T08:30:38,42.805,6.029,CST-1368DR,6493,9101,15192,0.110,551
2020-04-09T08:33:40,42.805,6.029,CST-1368DR,6492,9100,15194,0.110,551
2020-04-09T08:36:42,42.805,6.029,CST-1368DR,6492,9100,15194,0.110,551
2020-04-09T08:39:44,42.805,6.029,CST-1368DR,6493,9101,15193,0.110,551
2020-04-09T08:42:45,42.805,6.029,CST-1368DR,6493,9101,15192,0.110,550
2020-04-09T08:45:47,42.805,6.029,CST-1368DR,6492,9100,15194,0.110,551
2020-04-09T08:48:49,42.805,6.029,CST-1368DR,6492,9100,15194,0.110,551
2020-04-09T08:51:50,42.805,6.029,CST-1368DR,6492,9100,15193,0.110,551
2020-04-09T08:54:52,42.805,6.029,CST-1368DR,6492,9101,15195,0.109,551
2020-04-09T08:57:54,42.805,6.029,CST-1368DR,6493,9100,15191,0.110,551
2020-04-09T09:00:56,42.805,6.029,CST-1368DR,6492,9099,15191,0.110,551
2020-04-09T09:03:57,42.805,6.029,CST-1368DR,6492,9099,15192,0.110,551
2020-04-09T09:06:59,42.805,6.029,CST-1368DR,6492,9099,15192,0.110,551
2020-04-09T09:10:01,42.805,6.029,CST-1368DR,6492,9100,15194,0.110,551
2020-04-09T09:13:02,42.805,6.029,CST-1368DR,6492,9101,15194,0.110,551
2020-04-09T09:16:04,42.805,6.029,CST-1368DR,6492,9101,15196,0.109,551
2020-04-09T09:19:06,42.805,6.029,CST-1368DR,6492,9099,15192,0.110,551
2020-04-09T09:22:07,42.805,6.029,CST-1368DR,6492,9101,15194,0.110,551
2020-04-09T09:25:09,42.805,6.029,CST-1368DR,6492,9100,15194,0.110,551
2020-04-09T09:28:11,42.805,6.029,CST-1368DR,6492,9101,15195,0.109,551
2020-04-09T09:31:12,42.805,6.029,CST-1368DR,6492,9100,15193,0.110,551
2020-04-09T09:34:14,42.805,6.029,CST-1368DR,6492,9098,15189,0.111,551
2020-04-09T09:37:16,42.805,6.029,CST-1368DR,6492,9101,15195,0.109,551
2020-04-09T09:40:18,42.805,6.029,CST-1368DR,6492,9100,15193,0.110,551
2020-04-09T09:43:19,42.805,6.029,CST-1368DR,6492,9098,15190,0.111,551
2020-04-09T09:46:21,42.805,6.029,CST-1368DR,6492,9100,15193,0.110,551
2020-04-09T09:49:23,42.805,6.029,CST-1368DR,6492,9096,15187,0.111,551
2020-04-09T09:52:24,42.805,6.029,CST-1368DR,6492,9099,15191,0.110,551
2020-04-09T09:55:26,42.805,6.029,CST-1368DR,6492,9101,15194,0.110,551
2020-04-09T09:58:28,42.805,6.029,CST-1368DR,6492,9100,15194,0.110,551
2020-04-09T10:01:29,42.805,6.029,CST-1368DR,6492,9099,15192,0.110,551
2020-04-09T10:04:31,42.805,6.029,CST-1368DR,6492,9101,15195,0.109,551
2020-04-09T10:07:33,42.805,6.029,CST-1368DR,6492,9101,15195,0.109,551
2020-04-09T10:10:35,42.805,6.029,CST-1368DR,6492,9101,15194,0.110,551
2020-04-09T10:13:36,42.805,6.029,CST-1368DR,6492,9101,15194,0.110,551
2020-04-09T10:16:38,42.805,6.029,CST-1368DR,6492,9099,15192,0.110,551
2020-04-09T10:19:40,42.805,6.029,CST-1368DR,6492,9100,15194,0.110,550
2020-04-09T10:22:41,42.805,6.029,CST-1368DR,6492,9098,15189,0.111,551
2020-04-09T10:25:43,42.805,6.029,CST-1368DR,6492,9100,15194,0.110,551
2020-04-09T10:28:45,42.805,6.029,CST-1368DR,6492,9099,15192,0.110,551
2020-04-09T10:31:47,42.805,6.029,CST-1368DR,6492,9097,15189,0.111,551
2020-04-09T10:34:48,42.805,6.029,CST-1368DR,6492,9100,15193,0.110,551
2020-04-09T10:37:50,42.805,6.029,CST-1368DR,6492,9097,15188,0.111,551
2020-04-09T10:40:52,42.805,6.029,CST-1368DR,6492,9100,15193,0.110,551
2020-04-09T10:43:54,42.805,6.029,CST-1368DR,6492,9100,15193,0.110,551
2020-04-09T10:46:55,42.805,6.029,CST-1368DR,6492,9100,15193,0.110,551
2020-04-09T10:49:57,42.805,6.029,CST-1368DR,6492,9099,15192,0.110,550
2020-04-09T10:52:59,42.805,6.029,CST-1368DR,6492,9096,15187,0.111,551
2020-04-09T10:56:01,42.805,6.029,CST-1368DR,6492,9100,15193,0.110,550
2020-04-09T10:59:02,42.805,6.029,CST-1368DR,6492,9100,15194,0.110,551
2020-04-09T11:02:04,42.805,6.029,CST-1368DR,6492,9100,15194,0.110,551
2020-04-09T11:05:06,42.805,6.029,CST-1368DR,6492,9101,15194,0.110,551
2020-04-09T11:08:07,42.805,6.029,CST-1368DR,6492,9100,15194,0.110,551
2020-04-09T11:11:09,42.805,6.029,CST-1368DR,6492,9100,15193,0.110,551
2020-04-09T11:14:11,42.805,6.029,CST-1368DR,6492,9100,15194,0.110,551
2020-04-09T11:17:12,42.805,6.029,CST-1368DR,6492,9101,15194,0.110,551
2020-04-09T11:20:14,42.805,6.029,CST-1368DR,6492,9100,15193,0.110,551
2020-04-09T11:23:16,42.805,6.029,CST-1368DR,6492,9101,15195,0.109,551
2020-04-09T11:26:17,42.805,6.029,CST-1368DR,6492,9100,15193,0.110,551
2020-04-09T11:29:19,42.805,6.029,CST-1368DR,6492,9099,15192,0.110,551
2020-04-09T11:32:21,42.805,6.029,CST-1368DR,6492,9100,15193,0.110,550
2020-04-09T11:35:22,42.805,6.029,CST-1368DR,6492,9100,15194,0.110,551
2020-04-09T11:38:24,42.805,6.029,CST-1368DR,6492,9101,15194,0.110,551
2020-04-09T11:41:26,42.805,6.029,CST-1368DR,6492,9099,15192,0.110,551
2020-04-09T11:44:28,42.805,6.029,CST-1368DR,6492,9100,15193,0.110,551
2020-04-09T11:47:29,42.805,6.029,CST-1368DR,6492,9101,15194,0.110,551
2020-04-09T11:50:31,42.805,6.029,CST-1368DR,6492,9100,15193,0.110,551
2020-04-09T11:53:33,42.805,6.029,CST-1368DR,6492,9100,15194,0.110,551
2020-04-09T11:56:34,42.805,6.029,CST-1368DR,6492,9100,15194,0.110,551
2020-04-09T11:59:36,42.805,6.029,CST-1368DR,6492,9097,15189,0.111,551
2020-04-09T12:02:38,42.805,6.029,CST-1368DR,6492,9100,15194,0.110,551
2020-04-09T12:05:39,42.805,6.029,CST-1368DR,6492,9099,15191,0.110,551
2020-04-09T12:08:41,42.805,6.029,CST-1368DR,6492,9099,15192,0.110,551
2020-04-09T12:11:43,42.805,6.029,CST-1368DR,6492,9099,15192,0.110,551
2020-04-09T12:14:45,42.805,6.029,CST-1368DR,6492,9099,15192,0.110,551
2020-04-09T12:17:46,42.805,6.029,CST-1368DR,6492,9100,15193,0.110,551
2020-04-09T12:20:48,42.805,6.029,CST-1368DR,6492,9099,15192,0.110,551
2020-04-09T12:23:50,42.805,6.029,CST-1368DR,6492,9098,15189,0.111,551
2020-04-09T12:26:51,42.805,6.029,CST-1368DR,6492,9099,15192,0.110,551
2020-04-09T12:29:53,42.805,6.029,CST-1368DR,6492,9100,15193,0.110,551
2020-04-09T12:32:55,42.805,6.029,CST-1368DR,6492,9100,15193,0.110,551
2020-04-09T12:35:56,42.805,6.029,CST-1368DR,6492,9098,15189,0.111,551
2020-04-09T12:38:58,42.805,6.029,CST-1368DR,6492,9100,15193,0.110,551
2020-04-09T12:42:00,42.805,6.029,CST-1368DR,6492,9099,15191,0.110,551
2020-04-09T12:45:01,42.805,6.029,CST-1368DR,6492,9099,15192,0.110,551
2020-04-09T12:48:03,42.805,6.029,CST-1368DR,6492,9100,15193,0.110,551
2020-04-09T12:51:05,42.805,6.029,CST-1368DR,6492,9100,15193,0.110,551
2020-04-09T12:54:07,42.805,6.029,CST-1368DR,6492,9100,15194,0.110,551
2020-04-09T12:57:08,42.805,6.029,CST-1368DR,6492,9099,15192,0.110,551
2020-04-09T13:00:10,42.805,6.029,CST-1368DR,6492,9096,15187,0.111,551
2020-04-09T13:03:12,42.805,6.029,CST-1368DR,6492,9100,15193,0.110,551
2020-04-09T13:06:13,42.805,6.029,CST-1368DR,6492,9098,15189,0.111,551
2020-04-09T13:09:15,42.805,6.029,CST-1368DR,6492,9099,15192,0.110,551
2020-04-09T13:12:17,42.805,6.029,CST-1368DR,6492,9099,15192,0.110,551
2020-04-09T13:15:19,42.805,6.029,CST-1368DR,6491,9099,15194,0.110,550
2020-04-09T13:18:20,42.805,6.029,CST-1368DR,6492,9100,15194,0.110,551
2020-04-09T13:21:22,42.805,6.029,CST-1368DR,6491,9099,15194,0.110,551
2020-04-09T13:24:24,42.805,6.029,CST-1368DR,6492,9099,15192,0.110,551
2020-04-09T13:27:25,42.805,6.029,CST-1368DR,6491,9098,15192,0.110,550
2020-04-09T13:30:27,42.805,6.029,CST-1368DR,6491,9097,15190,0.111,551
2020-04-09T13:33:29,42.805,6.029,CST-1368DR,6491,9099,15194,0.110,551
2020-04-09T13:36:30,42.805,6.029,CST-1368DR,6491,9099,15194,0.110,551
2020-04-09T13:39:32,42.805,6.029,CST-1368DR,6492,9100,15193,0.110,551
2020-04-09T13:42:34,42.805,6.029,CST-1368DR,6491,9099,15194,0.110,551
2020-04-09T13:45:35,42.805,6.029,CST-1368DR,6491,9100,15196,0.109,551
2020-04-09T13:48:37,42.805,6.029,CST-1368DR,6491,9100,15195,0.109,551
2020-04-09T13:51:39,42.805,6.029,CST-1368DR,6491,9099,15194,0.110,551
2020-04-09T13:54:41,42.805,6.029,CST-1368DR,6491,9098,15193,0.110,551
2020-04-09T13:57:43,42.805,6.029,CST-1368DR,6491,9100,15196,0.109,551
2020-04-09T14:00:44,42.805,6.029,CST-1368DR,6491,9100,15196,0.109,551
2020-04-09T14:03:46,42.805,6.029,CST-1368DR,6491,9099,15194,0.110,551
2020-04-09T14:06:48,42.805,6.029,CST-1368DR,6491,9098,15192,0.110,551
2020-04-09T14:09:49,42.805,6.029,CST-1368DR,6491,9099,15195,0.109,551
2020-04-09T14:12:51,42.805,6.029,CST-1368DR,6491,9098,15193,0.110,551
2020-04-09T14:15:53,42.805,6.029,CST-1368DR,6491,9100,15195,0.109,551
2020-04-09T14:18:55,42.805,6.029,CST-1368DR,6491,9099,15194,0.110,551
2020-04-09T14:21:56,42.805,6.029,CST-1368DR,6491,9099,15194,0.110,551
2020-04-09T14:24:58,42.805,6.029,CST-1368DR,6491,9099,15194,0.110,551
2020-04-09T14:28:00,42.805,6.029,CST-1368DR,6491,9096,15190,0.111,551
2020-04-09T14:31:01,42.805,6.029,CST-1368DR,6491,9097,15190,0.111,551
2020-04-09T14:34:03,42.805,6.029,CST-1368DR,6491,9099,15194,0.110,551
2020-04-09T14:37:05,42.805,6.029,CST-1368DR,6491,9099,15193,0.110,551
2020-04-09T14:40:07,42.805,6.029,CST-1368DR,6491,9099,15194,0.110,551
2020-04-09T14:43:08,42.805,6.029,CST-1368DR,6491,9099,15193,0.110,551
2020-04-09T14:46:10,42.805,6.029,CST-1368DR,6491,9098,15192,0.110,551
2020-04-09T14:49:12,42.805,6.029,CST-1368DR,6491,9098,15193,0.110,551
2020-04-09T14:52:13,42.805,6.029,CST-1368DR,6491,9099,15194,0.110,551
2020-04-09T14:55:15,42.805,6.029,CST-1368DR,6491,9098,15192,0.110,551
2020-04-09T14:58:17,42.805,6.029,CST-1368DR,6491,9096,15189,0.111,551
2020-04-09T15:01:19,42.805,6.029,CST-1368DR,6491,9098,15192,0.110,551
2020-04-09T15:04:20,42.805,6.029,CST-1368DR,6491,9099,15194,0.110,551
2020-04-09T15:07:22,42.805,6.029,CST-1368DR,6491,9097,15190,0.111,550
2020-04-09T15:10:24,42.805,6.029,CST-1368DR,6491,9097,15191,0.110,551
2020-04-09T15:13:25,42.805,6.029,CST-1368DR,6491,9100,15195,0.109,551
2020-04-09T15:16:27,42.805,6.029,CST-1368DR,6491,9098,15192,0.110,551
2020-04-09T15:19:29,42.805,6.029,CST-1368DR,6491,9096,15189,0.111,551
2020-04-09T15:22:30,42.805,6.029,CST-1368DR,6491,9098,15193,0.110,551
2020-04-09T15:25:32,42.805,6.029,CST-1368DR,6491,9098,15193,0.110,551
2020-04-09T15:28:34,42.805,6.029,CST-1368DR,6491,9099,15194,0.110,551
2020-04-09T15:31:35,42.805,6.029,CST-1368DR,6491,9096,15189,0.111,551
2020-04-09T15:34:37,42.805,6.029,CST-1368DR,6491,9097,15190,0.111,551
2020-04-09T15:37:39,42.805,6.029,CST-1368DR,6491,9097,15191,0.110,551
2020-04-09T15:40:40,42.805,6.029,CST-1368DR,6491,9099,15193,0.110,551
2020-04-09T15:43:42,42.805,6.029,CST-1368DR,6491,9097,15191,0.110,551
2020-04-09T15:46:44,42.805,6.029,CST-1368DR,6491,9096,15189,0.111,551
2020-04-09T15:49:46,42.805,6.029,CST-1368DR,6491,9098,15192,0.110,551
2020-04-09T15:52:47,42.805,6.029,CST-1368DR,6491,9097,15191,0.110,550
2020-04-09T15:55:49,42.805,6.029,CST-1368DR,6491,9098,15192,0.110,551
2020-04-09T15:58:50,42.805,6.029,CST-1368DR,6491,9099,15193,0.110,551
2020-04-09T16:01:52,42.805,6.029,CST-1368DR,6491,9097,15191,0.110,551
2020-04-09T16:04:54,42.805,6.029,CST-1368DR,6491,9098,15193,0.110,551
2020-04-09T16:07:56,42.805,6.029,CST-1368DR,6491,9099,15193,0.110,551
2020-04-09T16:10:57,42.805,6.029,CST-1368DR,6491,9096,15188,0.111,551
2020-04-09T16:13:59,42.805,6.029,CST-1368DR,6491,9097,15191,0.110,551
2020-04-09T16:17:01,42.805,6.029,CST-1368DR,6491,9098,15192,0.110,551
2020-04-09T16:20:02,42.805,6.029,CST-1368DR,6491,9096,15188,0.111,551
2020-04-09T16:23:04,42.805,6.029,CST-1368DR,6491,9097,15191,0.110,551
2020-04-09T16:26:06,42.805,6.029,CST-1368DR,6491,9098,15192,0.110,551
2020-04-09T16:29:08,42.805,6.029,CST-1368DR,6491,9097,15191,0.110,551
2020-04-09T16:32:09,42.805,6.029,CST-1368DR,6491,9098,15192,0.110,551
2020-04-09T16:35:11,42.805,6.029,CST-1368DR,6491,9097,15191,0.110,551
2020-04-09T16:38:13,42.805,6.029,CST-1368DR,6491,9098,15193,0.110,551
2020-04-09T16:41:14,42.805,6.029,CST-1368DR,6491,9098,15193,0.110,551
2020-04-09T16:44:16,42.805,6.029,CST-1368DR,6491,9097,15190,0.111,551
2020-04-09T16:47:18,42.805,6.029,CST-1368DR,6491,9099,15193,0.110,551
2020-04-09T16:50:20,42.805,6.029,CST-1368DR,6491,9096,15190,0.111,551
2020-04-09T16:53:21,42.805,6.029,CST-1368DR,6491,9098,15192,0.110,551